Temperature
16 16 16 16 16 16 16 16 15 15 15 15 15 15 15 15 15 15 15 15 15 14 14 14 14 14 13 13 13 13 13 12 12 12 12 12 11 11
16 16 16 16 16 16 16 15 15 15 15 15 15 15 14 15 14 14 14 14 14 14 14 14 13 13 13 13 12 12 12 12 12 12 11 11 11 11
16 15 15 15 15 15 15 15 15 15 15 15 14 14 14 14 14 14 14 14 14 13 13 13 13 13 12 12 12 12 12 11 11 11 11 11 10 10
15 15 15 15 15 15 15 15 15 15 15 15 14 14 14 13 13 13 13 13 13 13 13 12 12 12 12 12 12 11 11 11 11 10 10 10 10 10
15 15 15 15 15 15 15 15 15 15 14 14 14 13 13 13 13 13 13 12 12 12 12 12 12 12 12 11 11 11 11 10 10 10 10 10 9 9
15 15 15 14 15 15 14 14 14 14 14 14 13 13 13 12 12 12 12 12 12 12 11 11 11 11 11 11 10 10 10 10 9 9 9 9 9 8
15 15 14 14 14 14 14 14 14 14 13 13 13 12 12 12 12 12 12 11 11 11 11 11 11 10 10 10 10 9 9 9 9 8 8 8 8 8
14 14 14 14 14 14 14 13 13 13 13 13 13 12 12 12 12 12 11 11 11 10 10 10 10 10 9 9 9 9 9 8 8 8 8 7 7 7
14 14 13 13 13 13 13 13 13 13 12 12 12 12 12 12 12 11 11 11 11 10 10 9 9 9 9 9 8 8 8 8 8 7 7 7 6 6
13 13 13 13 13 13 13 13 12 12 12 12 12 12 12 11 11 11 11 10 10 10 10 9 9 8 8 8 8 8 7 7 7 7 6 6 6 6
13 13 12 12 12 12 12 12 12 12 12 12 11 11 11 11 11 11 10 10 10 9 9 9 9 8 8 8 7 7 7 7 6 6 6 5 5 5
12 12 12 12 12 12 12 12 12 11 11 11 11 11 11 11 10 10 10 10 10 9 9 9 8 8 7 7 7 7 6 6 6 6 5 5 5 5
12 12 11 11 11 11 11 11 11 11 11 11 10 10 10 10 10 10 9 9 9 9 9 8 8 8 7 7 6 6 6 6 6 5 5 5 5 5
11 11 11 11 11 11 11 11 11 10 10 10 10 10 10 10 9 9 9 9 9 9 8 8 8 8 7 7 6 6 6 5 5 5 5 5 5 5
11 11 11 11 10 10 10 10 10 10 10 10 9 9 9 9 9 9 8 8 8 8 8 8 7 7 7 7 6 6 6 5 5 5 5 5 5 5
11 10 10 10 10 10 10 10 9 9 9 9 9 9 9 9 8 8 8 8 8 7 7 7 7 7 7 6 6 6 5 5 5 5 5 5 5 4
10 10 10 10 10 9 9 9 9 9 9 9 8 8 8 8 8 8 8 7 7 7 7 7 6 6 6 6 6 5 5 5 5 5 5 5 5 5
9 9 9 9 9 9 9 8 8 8 8 8 8 8 8 8 8 7 7 7 7 7 6 6 6 6 6 5 5 5 5 5 5 5 5 5 5 5
9 9 9 9 8 8 8 8 8 8 8 8 8 8 7 7 7 7 7 7 6 6 6 6 6 6 5 5 5 5 5 5 5 5 5 5 5 5
9 8 8 8 8 8 8 8 8 7 7 7 7 7 7 7 7 7 6 6 6 6 6 5 5 5 5 5 5 5 5 5 5 5 5 5 5 5
8 8 8 8 8 8 8 7 7 7 7 7 7 7 7 6 6 6 6 6 6 5 5 5 5 5 5 5 5 5 5 5 5 5 5 5 4 4
8 8 8 7 7 7 7 7 7 7 7 7 7 6 6 6 6 6 6 6 5 5 5 5 5 5 5 5 5 5 5 5 5 5 4 4 4 4
8 7 7 7 7 7 7 7 7 7 6 6 6 6 6 6 6 6 5 5 5 5 5 5 5 5 5 5 5 5 5 5 5 5 4 4 4 4
Wind_Speed
4 4 4 4 4 5 4 5 4 4 5 3 2 1 1 2 3 4 5 6 7 7 8 8 8 8 8 8 8 8 8 7 6 5 5 5 5 4
2 3 3 3 3 3 4 4 4 5 4 2 2 1 1 1 2 4 4 5 6 8 8 8 8 9 9 9 8 8 8 7 6 6 5 5 5 5
2 2 3 2 2 2 3 3 3 4 4 2 1 0 1 1 3 3 3 3 4 6 8 8 8 8 9 9 9 9 9 8 6 6 6 6 6 6
2 2 2 2 2 2 2 3 3 4 4 4 1 1 0 1 3 3 3 3 4 5 7 8 9 9 9 9 9 9 9 8 7 7 6 6 6 6
1 1 1 1 1 1 1 2 2 2 3 3 2 1 0 1 2 3 3 3 4 4 6 7 8 8 9 9 9 9 9 8 8 8 8 7 7 7
1 0 1 0 1 1 1 1 1 2 2 2 2 1 0 1 2 2 2 1 2 3 4 5 6 7 7 8 8 8 9 9 9 9 8 8 8 7
2 2 1 1 1 1 1 1 2 2 2 2 2 1 1 2 2 2 2 2 2 2 2 3 4 4 5 6 6 7 8 9 9 8 8 8 7 7
2 2 2 2 2 3 3 2 3 3 3 2 2 2 2 2 2 3 3 2 1 1 2 2 3 2 3 5 7 8 9 9 9 8 8 8 7 6
1 2 2 3 3 2 3 4 3 3 3 3 3 3 3 3 4 4 3 3 2 2 3 2 1 2 2 3 7 8 9 8 8 8 7 7 7 6
2 2 2 2 2 2 3 3 3 3 2 1 2 2 2 3 4 4 4 4 3 2 2 2 1 1 1 2 5 7 8 8 7 7 6 6 6 5
2 2 2 2 3 4 3 3 3 3 5 5 5 4 4 5 6 5 5 4 3 2 1 2 2 1 1 1 3 5 7 7 7 7 6 6 5 4
2 2 2 2 3 3 3 3 2 1 2 4 4 5 4 4 4 4 5 4 3 2 2 3 2 2 2 1 1 2 4 5 6 6 6 6 5 3
1 1 2 2 3 2 2 2 2 1 2 2 2 3 3 3 3 2 3 3 3 2 4 4 2 2 2 1 1 1 3 3 3 4 4 5 5 5
0 0 1 2 3 3 2 2 3 3 2 2 2 2 2 2 2 3 3 3 2 2 5 5 3 3 3 2 2 1 2 2 2 2 2 3 4 5
0 1 2 3 3 3 3 3 2 2 2 2 1 1 1 1 2 2 4 5 6 5 5 4 4 4 3 3 3 2 1 1 2 2 2 3 3 3
2 3 4 4 3 3 3 2 2 2 2 1 1 1 1 2 2 2 2 3 4 4 5 5 5 5 3 3 3 3 2 2 2 2 3 3 4 5
2 2 2 2 2 2 2 2 2 2 1 1 1 1 1 1 1 1 2 2 2 2 2 3 4 4 3 3 3 3 3 2 2 2 2 3 3 4
3 2 1 1 1 1 1 1 1 1 1 1 1 1 1 1 1 1 2 2 3 2 2 2 2 3 2 1 2 3 3 2 2 2 2 3 3 4
2 1 1 1 0 0 1 1 0 0 0 1 1 1 1 1 1 2 2 2 2 2 2 2 2 3 3 1 0 3 3 2 2 2 2 3 4 4
1 1 1 1 1 1 1 1 0 0 1 1 1 1 1 2 2 2 2 2 2 2 2 1 2 2 2 2 1 1 4 4 2 2 2 2 3 5
1 0 1 1 1 1 1 1 1 1 1 1 1 1 1 2 2 1 2 3 2 2 2 2 1 2 1 1 1 1 1 4 6 3 3 2 2 2
1 1 1 1 1 1 1 1 0 0 1 1 1 1 1 2 2 2 2 2 2 2 2 1 1 2 2 2 2 2 2 2 3 5 8 7 3 3
1 1 1 1 1 1 1 1 1 1 1 1 1 1 1 2 2 2 2 2 2 2 2 1 1 1 1 2 2 2 3 2 2 2 3 7 11 12
Wind_Direction
237 234 236 241 231 228 217 206 212 247 262 248 254 294 138 139 158 159 164 167 173 174 175 176 173 169 166 162 162 163 163 164 167 170 175 176 183 183
245 247 252 254 240 229 223 222 219 223 247 248 238 280 90 111 125 151 161 164 170 172 174 174 170 167 162 159 158 154 151 150 153 154 153 152 152 151
251 239 253 250 240 235 223 219 217 212 232 256 244 250 138 132 97 107 128 144 150 162 168 167 162 158 155 155 153 148 144 140 141 145 147 149 150 148
251 247 264 259 242 238 217 217 216 210 208 225 248 218 193 135 112 107 96 101 113 132 145 146 147 148 149 147 144 141 138 135 134 135 136 142 144 143
251 256 281 268 265 256 220 212 202 193 188 192 221 219 203 137 116 106 100 94 104 117 130 139 143 145 146 144 142 141 137 133 129 127 128 130 134 134
5 335 313 255 252 256 229 197 160 154 152 162 173 178 171 130 139 144 125 107 114 108 116 127 138 146 148 146 147 146 143 137 132 125 121 122 124 125
29 16 9 49 78 120 159 168 154 152 153 158 167 155 166 163 181 179 168 136 100 119 130 119 124 131 140 150 152 151 148 143 138 132 127 124 121 124
37 11 11 26 44 66 92 109 135 158 170 170 180 193 216 204 185 174 161 155 171 156 141 122 123 134 137 148 154 155 152 147 140 134 130 127 123 120
45 24 22 26 38 54 68 72 75 101 151 182 189 212 214 208 181 172 171 165 171 155 144 145 139 147 135 142 150 153 153 149 143 138 133 135 136 133
35 25 24 10 36 61 74 67 54 47 63 137 184 205 189 172 171 169 159 139 106 112 150 163 168 165 132 126 143 149 152 153 153 149 146 144 146 144
32 39 50 38 40 60 80 76 54 36 58 77 91 99 110 125 135 131 134 140 146 155 158 156 149 141 116 103 131 144 153 159 164 166 165 165 164 159
34 29 45 64 48 65 95 102 84 27 50 58 62 65 79 97 124 151 163 162 154 164 175 163 146 137 127 88 118 136 146 159 164 168 173 178 176 172
46 7 8 58 58 67 98 120 156 129 84 80 69 64 67 75 83 103 139 161 163 168 171 162 150 144 138 137 124 146 149 153 162 171 174 182 190 195
182 338 31 81 81 79 87 96 102 98 98 90 85 75 72 71 73 83 93 101 105 145 165 161 149 158 145 137 143 151 162 167 172 195 203 208 215 223
96 98 85 85 81 80 79 82 96 105 110 110 111 88 51 68 82 87 82 84 77 80 120 141 138 144 144 148 149 154 162 190 195 206 223 227 225 218
73 76 77 78 75 73 69 72 83 108 131 145 149 108 84 89 90 95 102 99 86 67 61 91 128 139 135 135 146 156 169 187 197 210 222 231 229 222
93 75 58 59 59 59 60 59 64 83 99 114 129 119 111 107 99 101 112 107 110 112 91 74 76 94 124 140 151 169 177 188 197 191 200 224 241 245
98 100 93 90 100 104 111 80 67 70 87 112 124 134 139 138 121 104 109 128 132 127 118 101 101 95 90 93 181 185 194 209 214 200 200 222 254 261
93 113 125 149 182 201 202 200 232 281 122 127 125 131 133 133 135 134 132 129 130 131 130 126 132 136 139 151 247 207 202 206 203 206 213 222 246 267
82 138 182 211 222 226 229 235 239 130 127 133 141 148 148 143 140 150 151 145 142 138 133 136 157 165 171 193 224 239 213 207 208 223 232 237 258 274
215 243 244 242 250 250 246 228 210 192 181 171 178 176 167 152 149 155 154 143 145 153 167 193 214 193 170 149 178 252 244 223 217 219 216 228 256 268
222 243 254 250 251 246 224 195 198 229 211 204 209 196 177 164 164 162 164 165 169 174 188 205 147 146 163 185 214 252 275 288 263 246 238 227 237 253
240 248 254 252 245 229 211 201 216 244 234 213 205 195 178 173 174 172 175 179 178 184 189 190 155 161 191 207 229 251 260 269 272 278 273 255 249 254
Height
1560 1560 1560 1560 1561 1560 1561 1561 1562 1560 1559 1560 1560 1561 1561 1561 1561 1561 1562 1562 1563 1564 1565 1565 1566 1567 1567 1568 1569 1569 1570 1570 1571 1571 1571 1572 1573 1573
1557 1556 1556 1556 1556 1556 1556 1557 1557 1557 1555 1555 1556 1557 1557 1557 1557 1558 1558 1558 1559 1560 1561 1561 1562 1562 1563 1564 1565 1565 1566 1567 1567 1567 1568 1568 1569 1569
1553 1553 1552 1552 1552 1552 1552 1552 1552 1552 1551 1551 1552 1553 1553 1553 1553 1554 1554 1554 1555 1556 1556 1557 1558 1559 1560 1560 1561 1562 1562 1563 1563 1564 1564 1565 1565 1566
1549 1549 1549 1548 1548 1548 1548 1548 1548 1548 1548 1547 1548 1548 1549 1549 1550 1550 1550 1551 1551 1552 1553 1554 1554 1555 1556 1557 1558 1558 1559 1559 1560 1561 1561 1561 1562 1562
1547 1546 1546 1545 1545 1545 1544 1544 1544 1544 1544 1544 1544 1544 1545 1545 1546 1546 1547 1547 1548 1548 1549 1550 1551 1552 1553 1554 1555 1555 1556 1556 1557 1557 1557 1557 1558 1558
1545 1544 1543 1543 1542 1542 1542 1541 1541 1541 1541 1540 1540 1541 1541 1542 1542 1543 1543 1544 1544 1545 1545 1546 1547 1549 1550 1551 1552 1552 1553 1553 1554 1554 1554 1554 1554 1555
1542 1542 1542 1541 1540 1540 1539 1539 1538 1538 1538 1538 1538 1538 1538 1539 1539 1540 1540 1540 1541 1542 1542 1543 1544 1545 1546 1548 1549 1550 1550 1551 1551 1551 1552 1552 1552 1552
1540 1540 1540 1539 1539 1538 1537 1537 1537 1536 1535 1535 1535 1535 1535 1536 1536 1537 1537 1537 1537 1539 1540 1541 1543 1543 1544 1545 1546 1547 1548 1549 1549 1549 1550 1550 1550 1550
1538 1538 1538 1538 1537 1536 1536 1535 1535 1534 1535 1534 1534 1533 1534 1534 1534 1534 1534 1535 1536 1537 1538 1539 1540 1541 1543 1543 1544 1545 1546 1547 1547 1548 1548 1549 1549 1549
1537 1536 1536 1535 1535 1535 1534 1533 1533 1533 1533 1532 1532 1532 1532 1532 1532 1533 1533 1534 1535 1536 1537 1537 1539 1540 1541 1542 1542 1543 1544 1545 1546 1546 1547 1548 1548 1548
1535 1535 1534 1534 1533 1533 1532 1532 1531 1531 1531 1531 1531 1531 1531 1531 1531 1531 1531 1532 1532 1533 1535 1536 1537 1538 1539 1540 1540 1541 1542 1543 1544 1545 1546 1547 1547 1548
1533 1533 1533 1532 1532 1531 1531 1530 1530 1530 1530 1530 1530 1530 1530 1530 1530 1530 1530 1530 1530 1531 1533 1534 1534 1535 1536 1538 1539 1539 1540 1541 1542 1543 1544 1545 1546 1547
1531 1531 1531 1530 1530 1530 1529 1529 1529 1529 1529 1529 1529 1529 1529 1529 1529 1529 1529 1529 1529 1529 1531 1531 1532 1532 1534 1535 1537 1538 1538 1540 1541 1542 1543 1544 1545 1545
1530 1530 1529 1529 1528 1528 1528 1528 1528 1528 1528 1528 1528 1528 1528 1528 1528 1528 1528 1528 1528 1528 1529 1529 1529 1530 1531 1533 1534 1536 1537 1538 1539 1540 1541 1542 1543 1544
1529 1529 1528 1528 1527 1527 1527 1527 1527 1527 1527 1527 1526 1527 1527 1527 1527 1527 1527 1527 1527 1527 1527 1528 1528 1529 1530 1531 1532 1534 1535 1537 1538 1539 1540 1541 1541 1542
1527 1527 1527 1526 1526 1526 1526 1525 1525 1526 1526 1526 1525 1526 1526 1526 1526 1526 1525 1525 1525 1526 1526 1527 1528 1529 1529 1530 1531 1533 1534 1535 1536 1538 1539 1540 1540 1540
1525 1525 1525 1525 1524 1524 1524 1524 1524 1524 1524 1524 1524 1524 1525 1525 1525 1525 1525 1524 1524 1525 1525 1526 1527 1528 1529 1530 1530 1532 1533 1534 1535 1536 1537 1538 1538 1539
1524 1524 1524 1523 1523 1523 1523 1522 1523 1523 1523 1523 1523 1523 1523 1523 1523 1524 1524 1524 1524 1524 1525 1525 1526 1527 1528 1529 1531 1531 1532 1533 1534 1535 1535 1536 1536 1537
1523 1523 1522 1522 1522 1522 1522 1522 1521 1522 1522 1522 1522 1522 1522 1522 1522 1522 1522 1523 1523 1523 1524 1525 1525 1526 1527 1528 1530 1530 1531 1531 1532 1533 1534 1534 1534 1534
1521 1521 1521 1521 1521 1521 1521 1521 1521 1521 1520 1520 1520 1520 1521 1521 1521 1521 1521 1522 1522 1523 1524 1524 1525 1526 1526 1527 1528 1529 1530 1530 1531 1531 1531 1532 1532 1532
1520 1520 1520 1520 1520 1520 1520 1520 1520 1519 1519 1519 1519 1519 1520 1520 1520 1520 1521 1521 1521 1522 1523 1524 1524 1525 1526 1527 1527 1528 1529 1529 1529 1529 1529 1529 1529 1529
1519 1519 1519 1519 1519 1519 1518 1518 1518 1518 1518 1518 1518 1518 1519 1519 1519 1520 1520 1520 1521 1521 1522 1523 1524 1524 1525 1525 1526 1526 1527 1527 1527 1527 1527 1527 1527 1526
1519 1519 1518 1518 1518 1518 1517 1517 1517 1517 1517 1517 1517 1517 1517 1518 1518 1518 1519 1520 1520 1521 1521 1522 1522 1523 1524 1524 1525 1525 1525 1525 1525 1525 1525 1525 1525 1524